Location: Unspecified
(0.0000°N, 0.0000°E)
Time: 06:53:31
(UTC+00:00)

Vanguard 2 Rocket - Pass Details

Date: 13 October 2022
Orbit: 555 x 3321 km, 32.9° (Epoch: 06 December)

Event Time Altitude Azimuth Distance (km) Brightness Sun altitude
Rises 05:28:34 0° 280° (W) 3,359 - -4.4°
Exits shadow 05:30:10 - 274° (W) 2,763 8.7 -4.0°
Reaches altitude 10° 05:32:03 10° 262° (W) 2,123 8.2 -3.5°
Maximum altitude 05:35:13 18° 218° (SW) 1,477 7.7 -2.8°
Drops below altitude 10° 05:38:01 10° 172° (S) 1,837 8.7 -2.1°
Sets 05:40:45 0° 151° (SSE) 2,731 9.9 -1.4°
